logo
Rechercher aéroport 
image banner adimage banner adimage banner ad
image banner ad

0O9 - Ward Field

Situé à Gasquet, United States

ICAO - 0O9, IATA -

Données fournies par Airmate  

Information générale

Coordonnées: N41°50'44" W123°59'5"
Élévation : 356 feet MSL.
Variation magnétique : 18° East
Voir autres Aéroports à California

Données opérationnelles

Special qualification required
Heure actuelle UTC:
Heure actuelle locale:
Météo à : KCEC - Jack Mc Namara Field ( 22 km )
METAR: KCEC 052056Z AUTO 18010KT 8SM BKN030 BKN036 09/07 A2998 RMK AO2 SLP153 T00940067 58003
TAF: KCEC 021131Z 0212/0312 14009KT P6SM OVC050 FM022000 16013KT P6SM BKN250 FM030700 15016G23KT P6SM BKN250
Voir NOTAMs / SUP AIP / TFR affectant cet aéroport [VIEW]
Fréquences de communication: [VIEW]

Pistes:

Identifiant RWYQFULongueur (ft)Largeur (ft)SurfaceLDA (ft)
06299050ASPH
24299050ASPH

Coordonnées de l'aéroport

Adresse: Gasquet United States

Vue satellite de 0O9